Regional Weather Roundup
Issued by NWS

Home | Current Version | Previous Version | Graphics & Text | Print | Product List | Glossary On
Versions: 1 2 3 4 5 6 7 8 9 10 11 12 13 14 15 16 17 18 19 20 21 22 23 24 25 26 27 28 29 30 31 32 33 34 35 36 37 38 39 40 41 42 43 44 45 46 47 48 49 50
000
ASUS43 KLOT 241508
RWRIL

ILLINOIS REGIONAL WEATHER ROUNDUP
NATIONAL WEATHER SERVICE CHICAGO/ROMEOVILLE IL
1000 AM CDT SUN JUL 24 2016

NOTE: "FAIR" INDICATES FEW OR NO CLOUDS BELOW 12,000 FEET WITH NO
SIGNIFICANT WEATHER AND/OR OBSTRUCTIONS TO VISIBILITY.

* THESE STATIONS ARE NOT UNDER NWS QUALITY CONTROL. THEY ALSO MAY NOT
  REPORT WEATHER SUCH AS PRECIPITATION OR FOG.

ILZ001-002-007-009-015-016-024-241600-
NORTHWEST ILLINOIS

CITY           SKY/WX    TMP DP  RH WIND       PRES   REMARKS
MOLINE         SUNNY     89  78  70 SW9       29.85S HX 103
STERLING*      SUNNY     87  80  79 VRB6      29.87F HX 103
SAVANNA*       CLOUDY    85  78  79 S8        29.85S HX  97
$$

ILZ003-004-008-010-011-017-018-241600-
NORTH CENTRAL ILLINOIS

CITY           SKY/WX    TMP DP  RH WIND       PRES   REMARKS
ROCKFORD       CLOUDY    83  76  79 S9        29.88S HX  91
FREEPORT*      MOSUNNY   84  77  80 S12       29.89S HX  93
ROCHELLE*      SUNNY     83  79  86 S12       29.89S HX  94
DE KALB*       MOSUNNY   83  78  86 S13       29.91F HX  94
$$

ILZ005-006-012>014-019>023-241600-
NORTHEAST ILLINOIS

CITY           SKY/WX    TMP DP  RH WIND       PRES   REMARKS
CHICAGO-OHARE  PTSUNNY   81  74  79 S16       29.90F HX  86
CHICAGO-MIDWAY PTSUNNY   82  73  74 S14       29.90F HX  87
AURORA         MOSUNNY   83  77  82 S14       29.91F HX  92
LANSING*       CLOUDY    80  73  79 S12G18    29.93F HX  84
JOLIET*        MOSUNNY   84  79  85 S6        29.92F HX  95
WAUKEGAN       CLOUDY    82  75  79 SW14      29.87F HX  89
DUPAGE AIRPORT MOSUNNY   82  75  79 S15       29.90F HX  89
WHEELING       SUNNY     83  74  74 S13       29.90F HX  89
MORRIS*        CLOUDY    83  78  83 S8        29.90F HX  94
ROMEOVILLE*    MOSUNNY   81  74  78 S12       29.92S HX  87
NORTHERLY ISL    N/A     79  71  76 S14         N/A  HX  82
$$

LMZ740>746-241600-
SOUTHERN LAKE MICHIGAN

STATION/POSITION SKY/WX   TEMP    WIND        PRES    VSBY  WAVE
                          AIR SEA DIR/SP/G                  HT/PER
                          (F)     (DEG/KT/KT) (MB)    (MI)  (FT/S)
SOUTHERN BUOY              75 72  140/ 14/ 16 1012.1F         3/ 5
WILMETTE HARBOR            73 62  220/ 10/ 14   N/A           2/ 2
HARRISON CRIB              75     180/ 19/ 19   N/A
BURNHAM HARBOR             80     180/ 12/ 15   N/A
CALUMET HARBOR             77     180/ 10/ 15 1012.9F
BURNS HARBOR               77     190/ 12/ 19 1013.9F
MICHIGAN CITY              78     160/ 11/ 14   N/A
MICHIGAN CITY 6N           77 73  200/ 16/ 19   N/A           1/ 2
ST. JOSEPH                 76 74  160/ 10/ 14 1013.3R         2/ 3
$$

ILZ025>027-034>036-040-047-049-050-058-095>099-241600-
WEST-CENTRAL ILLINOIS

CITY           SKY/WX    TMP DP  RH WIND       PRES   REMARKS
QUINCY         SUNNY     88  77  69 SW12      29.91F HX 100
GALESBURG*     SUNNY     86  78  76 S13       29.89F HX  98
MACOMB*        SUNNY     86  78  77 S8        29.92F HX  98
JACKSONVILLE*  MOSUNNY   84  77  78 S9        29.94S HX  94
PITTSFIELD*    SUNNY     87  79  78 SW3       29.94F HX 100
$$

ILZ028>032-037-038-041>044-048-051>054-059>061-241600-
CENTRAL ILLINOIS

CITY           SKY/WX    TMP DP  RH WIND       PRES   REMARKS
PONTIAC        CLOUDY    86  80  84 S8        29.94F HX 101
BLOOMINGTON    CLOUDY    85  78  80 S13       29.97S HX  96
DECATUR        MOSUNNY   87  76  69 S12       29.97S HX  97
PEORIA         MOSUNNY   85  79  82 S12       29.92S HX  98
LACON*         CLOUDY    85  77  76 SW9G16    29.90F HX  95
LINCOLN*       MOSUNNY   86  79  80 S9        29.95R HX 100
SPRINGFIELD    CLOUDY    87  77  72 S9        29.95S HX  99
TAYLORVILLE    MOSUNNY   84  78  82 NW8       29.97S HX  95
$$

ILZ033-039-045-046-055>057-062-063-241600-
EAST-CENTRAL ILLINOIS

CITY           SKY/WX    TMP DP  RH WIND       PRES   REMARKS
CHAMPAIGN      MOSUNNY   84  78  82 S9        29.99R HX  95
MATTOON        SUNNY     85  75  72 S10       29.99R HX  93
PARIS*         MOSUNNY   85  80  83 S6        30.01S HX  99
$$

ILZ079-100>102-241600-
SOUTHWEST ILLINOIS

CITY           SKY/WX    TMP DP  RH WIND       PRES   REMARKS
ALTON          MOSUNNY   84  77  79 S12       29.97R HX  94
BELLEVILLE     CLOUDY    87  80  78 S7        29.96S HX 103
CAHOKIA*       MOSUNNY   89  77  67 S8        29.96S HX 101
SPARTA*        SUNNY     85  77  76 S6        29.99S HX  96
$$

ILZ064>066-069>071-074>076-080>082-084>086-088>090-092>094-241600-
SOUTH-CENTRAL ILLINOIS

CITY           SKY/WX    TMP DP  RH WIND       PRES   REMARKS
CARBONDALE     MOSUNNY   86  77  74 SW7       29.99R HX  97
CAIRO*         SUNNY     83  77  81 S5        30.00R HX  93
EFFINGHAM*     SUNNY     86  80  82 SE6       30.00S HX 102
MARION         MOSUNNY   88  79  74 S9        30.00S HX 102
MT. VERNON     SUNNY     88  75  66 SW8       30.00R HX  97
CENTRALIA*     SUNNY     87  79  77 SW7       29.98S HX 101
SALEM*         MOSUNNY   88  78  72 SW6       29.99R HX 100
METROPOLIS*    PTSUNNY   86  78  76 S6        30.01R HX  98
$$

ILZ067-068-072-073-078-083-087-091-241600-
SOUTHEAST ILLINOIS

CITY           SKY/WX    TMP DP  RH WIND       PRES   REMARKS
LAWRENCEVILLE  SUNNY     85  79  82 SW6       29.99S HX  98
FLORA*         SUNNY     87  80  79 S5        29.99S HX 101
FAIRFIELD*     SUNNY     84  78  81 CALM      29.99S HX  95
HARRISBURG*    SUNNY     85  80  83 SW6       30.00R HX  99
ROBINSON*      SUNNY     86  78  75 S6        30.01R HX  98
CARMI*         SUNNY     85  79  84 CALM      29.99S HX  97
$$

ABBREVIATIONS USED IN REMARKS
   TC - TEMPERATURE IN CELSIUS
  WCI - WIND CHILL INDEX
   HX - HEAT INDEX
  VSB - VISIBILITY
$$





USA.gov is the U.S. government's official web portal to all federal, state and local government web resources and services.